• In Russia
  • List of Countries
  • For 7 days
  • Water Temperature
  • Satellite Maps
  • Weather Map
  • Weather Widgets
  • user-avatar
    Login

    Hourly Weather Gjirokaster

    Today, 24 February, Friday

    Time Temperature Precipitation Wind Pressure Humidity
    00:00 0°C° 0 mm 3 mps 651 mmHg 94%
    01:00 -1°C° 0 mm 3 mps 650 mmHg 95%
    02:00 -1°C° 0 mm 3 mps 650 mmHg 95%
    03:00 -1°C° 0 mm 3 mps 650 mmHg 95%
    04:00 -1°C° 0 mm 3 mps 650 mmHg 95%
    05:00 -1°C° 0 mm 3 mps 650 mmHg 94%
    06:00 0°C° 0 mm 3 mps 650 mmHg 94%
    07:00 0°C° 0 mm 3 mps 650 mmHg 93%
    08:00 0°C° 0 mm 4 mps 651 mmHg 88%
    09:00 +3°C° 0 mm 4 mps 651 mmHg 82%
    10:00 +5°C° 0 mm 4 mps 651 mmHg 77%
    11:00 +5°C° 0 mm 4 mps 651 mmHg 75%
    12:00 +6°C° 0 mm 4 mps 651 mmHg 73%
    13:00 +7°C° 0 mm 4 mps 651 mmHg 71%
    14:00 +6°C° 0 mm 4 mps 651 mmHg 74%
    15:00 +6°C° 0 mm 4 mps 651 mmHg 77%
    16:00 +5°C° 0 mm 5 mps 650 mmHg 80%
    17:00 +3°C° 0 mm 5 mps 650 mmHg 85%
    18:00 +2°C° 0 mm 5 mps 650 mmHg 89%
    19:00 +1°C° 0 mm 5 mps 650 mmHg 93%
    20:00 +1°C° 0 mm 5 mps 650 mmHg 93%
    21:00 +1°C° 0 mm 5 mps 650 mmHg 93%
    22:00 0°C° 0 mm 5 mps 650 mmHg 93%
    23:00 -1°C° 0 mm 6 mps 649 mmHg 92%

    Tomorrow, 25 February, Saturday

    Time Temperature Precipitation Wind Pressure Humidity
    00:00 -1°C° 0 mm 6 mps 649 mmHg 92%
    01:00 -1°C° 0 mm 6 mps 649 mmHg 91%
    02:00 -1°C° 0 mm 6 mps 649 mmHg 90%
    03:00 -1°C° 0 mm 6 mps 648 mmHg 90%
    04:00 0°C° 0 mm 5 mps 648 mmHg 90%
    05:00 -1°C° 0.4 mm 6 mps 648 mmHg 89%
    06:00 -1°C° 0.4 mm 6 mps 648 mmHg 89%
    07:00 +1°C° 0.4 mm 6 mps 648 mmHg 89%
    08:00 +2°C° 0.3 mm 6 mps 648 mmHg 84%
    09:00 +4°C° 0.3 mm 6 mps 649 mmHg 80%
    10:00 +5°C° 0.3 mm 6 mps 649 mmHg 75%
    11:00 +7°C° 0.1 mm 5 mps 649 mmHg 70%
    12:00 +8°C° 0.1 mm 5 mps 649 mmHg 64%
    13:00 +9°C° 0.1 mm 5 mps 649 mmHg 59%
    14:00 +8°C° 0.1 mm 4 mps 649 mmHg 64%
    15:00 +8°C° 0.1 mm 4 mps 649 mmHg 69%
    16:00 +7°C° 0.1 mm 4 mps 649 mmHg 74%
    17:00 +7°C° 0.1 mm 3 mps 649 mmHg 77%
    18:00 +5°C° 0.1 mm 3 mps 649 mmHg 79%
    19:00 +4°C° 0.1 mm 3 mps 649 mmHg 82%
    20:00 +4°C° 0.2 mm 3 mps 650 mmHg 83%
    21:00 +4°C° 0.2 mm 3 mps 650 mmHg 84%
    22:00 +4°C° 0.2 mm 3 mps 650 mmHg 85%
    23:00 +4°C° 0.6 mm 3 mps 650 mmHg 86%

    Day after tomorrow, 26 February, Sunday

    Time Temperature Precipitation Wind Pressure Humidity
    00:00 +3°C° 0.6 mm 3 mps 651 mmHg 87%
    01:00 +3°C° 0.6 mm 3 mps 651 mmHg 89%
    02:00 +3°C° 0.3 mm 3 mps 650 mmHg 89%
    03:00 +2°C° 0.3 mm 3 mps 650 mmHg 90%
    04:00 +1°C° 0.3 mm 3 mps 650 mmHg 91%
    05:00 +1°C° 0.1 mm 3 mps 650 mmHg 90%
    06:00 +1°C° 0.1 mm 3 mps 651 mmHg 90%
    07:00 +1°C° 0.1 mm 3 mps 651 mmHg 89%
    08:00 +3°C° 0.1 mm 3 mps 651 mmHg 82%
    09:00 +6°C° 0.1 mm 2 mps 652 mmHg 75%
    10:00 +8°C° 0.1 mm 2 mps 653 mmHg 68%
    11:00 +9°C° 0.1 mm 2 mps 653 mmHg 65%
    12:00 +10°C° 0.1 mm 2 mps 653 mmHg 62%
    13:00 +12°C° 0.1 mm 2 mps 653 mmHg 60%
    14:00 +10°C° 0.3 mm 2 mps 652 mmHg 64%
    15:00 +10°C° 0.3 mm 1 mps 652 mmHg 68%
    16:00 +10°C° 0.3 mm 1 mps 652 mmHg 72%
    17:00 +8°C° 0.2 mm 1 mps 652 mmHg 78%
    18:00 +6°C° 0.2 mm 1 mps 651 mmHg 84%
    19:00 +5°C° 0.2 mm 1 mps 651 mmHg 90%
    20:00 +5°C° 0 mm 1 mps 651 mmHg 90%
    21:00 +4°C° 0 mm 1 mps 651 mmHg 90%
    22:00 +4°C° 0 mm 1 mps 651 mmHg 90%
    23:00 +4°C° 0 mm 1 mps 651 mmHg 90%

    27 February, Monday

    Time Temperature Precipitation Wind Pressure Humidity
    00:00 +3°C° 0 mm 1 mps 651 mmHg 91%
    01:00 +3°C° 0 mm 1 mps 651 mmHg 91%
    02:00 +3°C° 0 mm 1 mps 651 mmHg 91%
    03:00 +3°C° 0 mm 1 mps 650 mmHg 91%
    04:00 +2°C° 0 mm 1 mps 650 mmHg 91%
    05:00 +3°C° 0 mm 1 mps 650 mmHg 89%
    06:00 +3°C° 0 mm 1 mps 650 mmHg 88%
    07:00 +2°C° 0 mm 2 mps 651 mmHg 87%
    08:00 +6°C° 0 mm 1 mps 651 mmHg 79%
    09:00 +8°C° 0 mm 1 mps 652 mmHg 71%
    10:00 +9°C° 0 mm 0 mps 652 mmHg 64%
    11:00 +11°C° 0 mm 1 mps 652 mmHg 62%
    12:00 +11°C° 0 mm 1 mps 652 mmHg 60%
    13:00 +12°C° 0 mm 2 mps 652 mmHg 59%
    14:00 +10°C° 0 mm 2 mps 652 mmHg 63%
    15:00 +9°C° 0 mm 2 mps 651 mmHg 67%
    16:00 +10°C° 0 mm 1 mps 651 mmHg 72%
    17:00 +8°C° 0 mm 1 mps 651 mmHg 79%
    18:00 +6°C° 0 mm 1 mps 651 mmHg 86%
    19:00 +4°C° 0 mm 0 mps 650 mmHg 93%
    20:00 +3°C° 0 mm 0 mps 650 mmHg 93%
    21:00 +3°C° 0 mm 0 mps 650 mmHg 94%
    22:00 +2°C° 0 mm 0 mps 650 mmHg 94%
    23:00 +3°C° 0 mm 1 mps 650 mmHg 95%

    28 February, Tuesday

    Time Temperature Precipitation Wind Pressure Humidity
    00:00 +3°C° 0 mm 1 mps 650 mmHg 95%
    01:00 +2°C° 0 mm 1 mps 650 mmHg 95%
    02:00 +2°C° 0 mm 1 mps 649 mmHg 95%
    03:00 +2°C° 0 mm 1 mps 649 mmHg 95%
    04:00 +2°C° 0 mm 1 mps 649 mmHg 95%
    05:00 +2°C° 0 mm 1 mps 649 mmHg 95%
    06:00 +3°C° 0 mm 1 mps 650 mmHg 94%
    07:00 +3°C° 0 mm 1 mps 650 mmHg 94%
    08:00 +4°C° 0 mm 2 mps 650 mmHg 86%
    09:00 +6°C° 0 mm 2 mps 651 mmHg 77%
    10:00 +8°C° 0 mm 2 mps 652 mmHg 69%
    11:00 +9°C° 0 mm 2 mps 651 mmHg 67%
    12:00 +9°C° 0 mm 3 mps 651 mmHg 66%
    13:00 +10°C° 0 mm 3 mps 651 mmHg 64%
    14:00 +9°C° 0.1 mm 3 mps 651 mmHg 68%
    15:00 +9°C° 0.1 mm 3 mps 650 mmHg 72%
    16:00 +8°C° 0.1 mm 3 mps 650 mmHg 75%
    17:00 +7°C° 0 mm 3 mps 650 mmHg 82%
    18:00 +4°C° 0 mm 3 mps 650 mmHg 88%
    19:00 +3°C° 0 mm 3 mps 650 mmHg 95%
    20:00 +3°C° 0 mm 3 mps 650 mmHg 95%
    21:00 +3°C° 0 mm 3 mps 650 mmHg 96%
    22:00 +3°C° 0 mm 3 mps 650 mmHg 96%
    23:00 +3°C° 0 mm 3 mps 650 mmHg 96%

    1 March, Wednesday

    Time Temperature Precipitation Wind Pressure Humidity
    00:00 +3°C° 0 mm 3 mps 650 mmHg 96%
    01:00 +2°C° 0 mm 3 mps 650 mmHg 96%
    02:00 +2°C° 0 mm 3 mps 649 mmHg 96%
    03:00 +2°C° 0 mm 3 mps 649 mmHg 96%
    04:00 +3°C° 0 mm 2 mps 649 mmHg 96%
    05:00 +3°C° 0 mm 2 mps 649 mmHg 96%
    06:00 +3°C° 0 mm 2 mps 650 mmHg 96%
    07:00 +3°C° 0 mm 2 mps 650 mmHg 95%
    08:00 +5°C° 0 mm 2 mps 650 mmHg 87%
    09:00 +6°C° 0 mm 2 mps 651 mmHg 80%
    10:00 +7°C° 0 mm 2 mps 651 mmHg 72%
    11:00 +8°C° 0 mm 2 mps 651 mmHg 69%
    12:00 +9°C° 0 mm 2 mps 651 mmHg 67%
    13:00 +9°C° 0 mm 2 mps 651 mmHg 64%
    14:00 +9°C° 0 mm 2 mps 651 mmHg 66%
    15:00 +8°C° 0 mm 2 mps 651 mmHg 68%
    16:00 +8°C° 0 mm 2 mps 651 mmHg 70%
    17:00 +7°C° 0 mm 1 mps 651 mmHg 78%
    18:00 +6°C° 0 mm 1 mps 651 mmHg 85%
    19:00 +4°C° 0 mm 1 mps 651 mmHg 93%
    20:00 +4°C° 0 mm 1 mps 651 mmHg 92%
    21:00 +3°C° 0 mm 1 mps 651 mmHg 92%
    22:00 +3°C° 0 mm 1 mps 651 mmHg 92%
    23:00 +3°C° 0 mm 1 mps 651 mmHg 91%
    Show more